Hourly Data Report for February 22, 2003

TORONTO CITY
ONTARIO

43°40'00.000" N
79°24'00.000" W
112.50 m
6158355
71508
XTO

Download Data

Hourly Data (February 2003)
Hourly Data Report for February 22, 2003
TIME
LST
Temp Definition
°C
Dew Point Definition
°C
Rel Hum Definition
%
Precip. Amount Definition
mm

Wind Dir Definition
10's deg

Wind Spd Definition
km/h
Visibility Definition
km
Stn Press Definition
kPa
Hmdx Definition


Wind Chill Definition


Weather Definition


00:00 2.0 -1.5 78   LegendMM LegendMM LegendMM 99.73     LegendNANA
01:00 1.0 -2.0 80   LegendMM LegendMM LegendMM 99.66     LegendNANA
02:00 1.0 -1.8 82   LegendMM LegendMM LegendMM 99.66     LegendNANA
03:00 1.2 -2.1 79   LegendMM LegendMM LegendMM 99.58     LegendNANA
04:00 0.9 -2.6 77   LegendMM LegendMM LegendMM 99.53     LegendNANA
05:00 1.2 -3.4 71   LegendMM LegendMM LegendMM 99.41     LegendNANA
06:00 1.2 -3.4 71   LegendMM LegendMM LegendMM 99.31     LegendNANA
07:00 1.9 -4.1 64   LegendMM LegendMM LegendMM 99.31     LegendNANA
08:00 2.3 -3.9 64   LegendMM LegendMM LegendMM 99.28     LegendNANA
09:00 2.6 -3.6 64   LegendMM LegendMM LegendMM 99.17     LegendNANA
10:00 2.4 -2.6 70   LegendMM LegendMM LegendMM 99.19     LegendNANA
11:00 2.4 -1.8 74   LegendMM LegendMM LegendMM 99.06     LegendNANA
12:00 2.4 -0.3 82   LegendMM LegendMM LegendMM 98.87     LegendNANA
13:00 2.4 0.9 90   LegendMM LegendMM LegendMM 98.70     LegendNANA
14:00 1.9 0.4 90   LegendMM LegendMM LegendMM 98.61     LegendNANA
15:00 1.6 0.6 93   LegendMM LegendMM LegendMM 98.54     LegendNANA
16:00 1.1 0.3 94   LegendMM LegendMM LegendMM 98.45     LegendNANA
17:00 1.2 0.6 96   LegendMM LegendMM LegendMM 98.27     LegendNANA
18:00 1.2 0.5 95   LegendMM LegendMM LegendMM 98.23     LegendNANA
19:00 0.9 0.2 95   LegendMM LegendMM LegendMM 98.17     LegendNANA
20:00 0.8 0.1 95   LegendMM LegendMM LegendMM 98.07     LegendNANA
21:00 0.3 -0.5 94   LegendMM LegendMM LegendMM 97.99     LegendNANA
22:00 -0.6 -1.2 96   LegendMM LegendMM LegendMM 97.87     LegendNANA
23:00 -1.3 -1.7 97   LegendMM LegendMM LegendMM 97.79     LegendNANA

Notes on Data Quality.

Legend

  • E = Estimated
  • M = Missing
  • NA = Not Available*
  • [empty] = Indicates an unobserved value
Date modified: